EW6281 Weather Reports


time (UTC)temp
C
wind
direction
speed
KPH
gust
KPH
rain 1hr
cm
rain 24hr
cm
rain mn
cm
humidity
%
barometer
mb
20260508041557 5 0 0.0 0.0 0.00 0.00 0.00 90 1016.3
20260508040100 5 0 0.0 0.0 0.00 0.00 0.00 90 1016.3
20260508034554 5 0 0.0 0.0 0.00 0.00 0.00 89 1016.3
20260508033055 5 0 0.0 0.0 0.00 0.00 0.00 89 1016.2
20260508031600 5 0 0.0 0.0 0.00 0.00 0.00 89 1016.2
20260508030105 5 0 0.0 0.0 0.00 0.00 0.00 89 1016.3
20260508024604 5 0 0.0 0.0 0.00 0.00 0.00 89 1016.3
20260508023055 5 0 0.0 0.0 0.00 0.00 0.00 89 1016.4
20260508021557 6 0 0.0 0.0 0.00 0.00 0.00 89 1016.3
20260508020106 6 0 0.0 0.0 0.00 0.00 0.00 89 1016.2
20260508014615 6 0 0.0 6.4 0.00 0.00 0.00 89 1016.3
20260508013059 6 0 0.0 6.4 0.00 0.00 0.00 89 1016.1
20260508011559 7 164 0.0 1.6 0.00 0.00 0.00 89 1016.2
20260508010057 7 0 0.0 0.0 0.00 0.00 0.00 89 1016.2
20260508004556 7 0 0.0 0.0 0.00 0.00 0.00 89 1016.1
20260508003055 7 0 0.0 0.0 0.00 0.00 0.00 88 1016.0
20260508001556 7 0 0.0 0.0 0.00 0.00 0.00 88 1016.2
20260508000055 7 0 0.0 1.6 0.00 0.00 0.00 88 1016.5
20260507234559 7 0 0.0 1.6 0.00 0.00 0.00 88 1016.5
20260507233054 7 0 0.0 0.0 0.00 0.00 0.00 88 1016.5
20260507231556 7 0 0.0 0.0 0.00 0.00 0.00 88 1016.6
20260507230106 7 0 0.0 1.6 0.00 0.00 0.00 87 1016.5
20260507224556 7 0 0.0 0.0 0.00 0.00 0.00 87 1016.6
20260507223057 7 0 0.0 1.6 0.00 0.00 0.00 87 1016.7
20260507221555 6 0 0.0 0.0 0.00 0.00 0.00 86 1016.7
20260507220056 6 0 0.0 8.0 0.00 0.00 0.00 85 1016.8
20260507214556 6 0 0.0 1.6 0.00 0.00 0.00 85 1016.7
20260507213057 7 0 0.0 0.0 0.00 0.00 0.00 84 1016.8
20260507211556 7 0 0.0 0.0 0.00 0.00 0.00 84 1016.6
20260507210103 7 0 0.0 0.0 0.00 0.00 0.00 83 1016.6
20260507204551 7 0 0.0 0.0 0.00 0.00 0.00 82 1016.6
20260507203100 8 0 0.0 0.0 0.00 0.00 0.00 81 1016.3
20260507201554 8 0 0.0 0.0 0.00 0.00 0.00 79 1016.3
20260507200053 8 0 0.0 0.0 0.00 0.00 0.00 78 1016.1
20260507194554 9 0 0.0 1.6 0.00 0.00 0.00 78 1015.9
20260507193056 10 298 0.0 3.2 0.00 0.00 0.00 76 1015.9
20260507191554 10 0 0.0 6.4 0.00 0.00 0.00 76 1015.9
20260507190051 10 184 0.0 14.5 0.00 0.00 0.00 75 1015.8
20260507184554 11 0 0.0 4.8 0.00 0.00 0.00 74 1015.9
20260507183056 11 0 0.0 9.7 0.00 0.00 0.00 73 1015.8
20260507181553 11 0 0.0 8.0 0.00 0.00 0.00 72 1015.6
20260507180101 11 0 0.0 6.4 0.00 0.00 0.00 71 1015.6
20260507174605 12 0 0.0 8.0 0.00 0.00 0.00 69 1015.4
20260507173057 12 0 0.0 6.4 0.00 0.00 0.00 69 1015.3
20260507171604 12 0 0.0 4.8 0.00 0.00 0.00 71 1015.1
20260507170055 12 0 0.0 8.0 0.00 0.00 0.00 69 1015.4
20260507164556 12 0 0.0 3.2 0.00 0.00 0.00 70 1015.3
20260507163054 12 289 0.0 4.8 0.00 0.00 0.00 69 1015.3
20260507161557 12 0 0.0 4.8 0.00 0.00 0.00 68 1015.3
20260507160056 12 130 0.0 6.4 0.00 0.00 0.00 69 1015.4
20260507154553 13 130 1.6 6.4 0.00 0.00 0.00 70 1015.5
20260507153101 12 51 0.0 3.2 0.00 0.00 0.00 70 1015.4
20260507151552 12 12 1.6 6.4 0.00 0.00 0.00 69 1015.6
20260507150053 12 0 1.6 14.5 0.00 0.00 0.00 68 1015.6
20260507144556 13 0 1.6 12.9 0.00 0.00 0.00 67 1015.6
20260507143056 14 0 1.6 12.9 0.00 0.00 0.00 66 1015.7
20260507141553 14 32 1.6 8.0 0.00 0.00 0.00 67 1015.6
20260507140105 13 129 1.6 17.7 0.00 0.00 0.00 69 1015.7
20260507134552 13 0 1.6 6.4 0.00 0.00 0.00 71 1015.9
20260507133101 11 49 0.0 3.2 0.00 0.00 0.00 75 1015.9
20260507131554 10 0 0.0 1.6 0.00 0.00 0.00 74 1016.0
20260507130108 10 0 0.0 1.6 0.00 0.00 0.00 76 1016.0
20260507124633 10 0 0.0 0.0 0.00 0.00 0.00 75 1016.1
20260507123056 10 0 0.0 0.0 0.00 0.00 0.00 75 1016.2
20260507121554 10 0 0.0 1.6 0.00 0.00 0.00 75 1016.2
20260507120057 10 355 0.0 3.2 0.00 0.00 0.00 75 1016.3
20260507114610 10 0 0.0 0.0 0.00 0.00 0.00 75 1016.5
20260507113057 10 0 0.0 3.2 0.00 0.00 0.00 75 1016.4
20260507111553 10 0 0.0 4.8 0.00 0.00 0.00 75 1016.4
20260507110059 10 0 0.0 0.0 0.00 0.00 0.00 76 1016.5
20260507104558 10 0 0.0 3.2 0.00 0.00 0.00 75 1016.4
20260507103058 10 0 0.0 3.2 0.00 0.00 0.00 74 1016.4
20260507101557 11 0 0.0 6.4 0.00 0.00 0.00 72 1016.4
20260507100058 11 267 0.0 4.8 0.00 0.00 0.00 67 1016.4
20260507094555 12 306 0.0 4.8 0.00 0.00 0.00 67 1016.4
20260507093054 13 0 0.0 14.5 0.00 0.00 0.00 64 1016.4
20260507091554 13 128 1.6 6.4 0.00 0.00 0.00 67 1016.2
20260507090051 12 0 0.0 11.3 0.00 0.00 0.00 68 1016.3
20260507084556 12 0 0.0 9.7 0.00 0.00 0.00 70 1016.2
20260507083057 12 217 1.6 9.7 0.00 0.00 0.00 71 1016.3
20260507081556 12 118 0.0 6.4 0.00 0.00 0.00 74 1016.2
20260507074607 9 0 0.0 0.0 0.00 0.00 0.00 84 1016.2
20260507073102 8 0 0.0 0.0 0.00 0.00 0.00 86 1016.2
20260507071555 7 0 0.0 0.0 0.00 0.00 0.00 88 1016.2
20260507070115 7 0 0.0 0.0 0.00 0.00 0.00 89 1016.1
20260507064605 7 0 0.0 0.0 0.00 0.00 0.00 90 1016.1
20260507063059 7 0 0.0 0.0 0.00 0.00 0.00 90 1016.1
20260507061558 6 0 0.0 0.0 0.00 0.00 0.00 91 1016.1
20260507060053 5 0 0.0 0.0 0.00 0.00 0.00 90 1016.0
20260507054554 5 0 0.0 0.0 0.00 0.00 0.00 89 1015.9
20260507053053 5 0 0.0 0.0 0.00 0.00 0.00 89 1015.8
20260507051558 5 0 0.0 0.0 0.00 0.00 0.00 89 1015.8
20260507044554 5 0 0.0 0.0 0.00 0.00 0.00 88 1015.4
20260507043057 5 0 0.0 0.0 0.00 0.00 0.00 88 1015.4